Temperature
9 9 9 9 9 9 9 9 9 9 9 9 9 9 9 10 10 10 10 10 10 10 10 10 10 10 10 10 10 10 10 10 10 10 10 10 10 11 11 11 11 11 11
8 8 8 8 8 9 9 9 9 9 9 9 9 9 9 9 9 9 10 10 10 10 10 10 10 9 9 9 10 10 10 10 10 10 10 10 10 10 10 10 10 10 10
8 8 8 8 8 8 8 8 8 8 8 8 8 8 8 8 8 9 9 9 9 9 9 9 9 9 9 9 9 9 9 9 9 9 9 9 9 9 9 10 10 10 10
7 7 7 7 7 7 7 7 8 8 8 8 8 8 8 8 8 8 8 8 9 9 9 9 9 9 9 9 8 9 9 9 9 9 9 9 9 9 9 9 9 9 9
7 7 7 7 7 7 7 7 7 7 7 7 7 7 7 7 7 7 8 8 8 8 8 8 8 8 8 8 8 8 8 8 8 8 8 8 9 9 9 9 9 9 9
6 6 6 6 6 6 6 6 6 6 6 6 6 6 6 6 7 7 7 7 7 7 7 7 7 8 8 8 8 8 8 8 8 8 8 8 8 8 8 8 8 8 8
5 5 5 6 6 6 6 5 5 5 5 5 5 5 6 6 6 6 6 6 6 6 7 7 7 7 7 7 7 7 7 7 7 7 7 7 7 7 7 8 8 8 8
4 5 5 5 5 5 5 5 5 5 5 4 4 4 4 4 5 5 5 5 5 5 6 6 6 6 6 6 7 7 6 7 6 6 6 7 7 7 7 7 7 7 7
4 4 4 4 4 4 4 4 4 4 4 4 4 4 3 3 3 4 4 4 4 4 5 5 5 5 5 6 6 6 6 6 6 6 6 6 6 6 6 6 6 6 7
3 3 3 3 3 3 3 3 3 3 3 3 3 3 3 3 3 2 3 3 3 3 4 4 4 4 4 5 5 5 5 5 5 5 5 5 5 5 6 6 6 6 6
3 3 3 3 3 3 3 3 3 3 2 3 3 3 3 2 3 2 2 2 2 3 3 3 3 3 3 4 4 4 4 4 4 5 5 4 5 5 5 5 5 5 5
2 2 2 2 2 2 2 2 2 2 2 2 2 2 2 2 2 2 2 2 1 2 2 2 2 2 2 3 3 3 4 4 4 4 4 4 4 4 4 4 4 4 4
2 2 2 2 2 1 1 1 1 1 1 1 1 1 1 1 2 2 2 1 1 1 1 1 1 1 2 2 2 2 3 3 3 3 3 3 3 3 4 4 4 4 4
1 1 1 1 1 1 1 1 1 1 1 1 1 1 1 1 1 1 1 1 0 -0 -0 0 1 1 1 1 1 1 2 2 2 2 3 3 3 3 3 3 3 3 3
0 0 0 0 0 0 0 0 -0 -0 -0 -0 -0 -0 -0 0 0 -0 -0 0 -0 -1 -1 -0 0 0 0 0 1 1 1 1 2 2 2 2 2 2 2 3 3 3 3
-1 -1 -0 -0 -0 -0 -0 -1 -1 -1 -1 -1 -1 -1 -1 -1 -1 -1 -1 -1 -1 -1 -1 -1 -0 -0 -0 -0 0 0 0 1 1 1 1 1 1 1 1 2 2 2 2
-1 -1 -1 -1 -1 -1 -1 -1 -1 -1 -1 -1 -2 -2 -1 -1 -1 -1 -1 -2 -2 -2 -2 -1 -1 -1 -1 -1 -1 -0 -0 -0 0 0 0 0 0 1 1 1 1 1 1
-2 -2 -2 -2 -2 -2 -2 -2 -2 -2 -2 -2 -2 -2 -2 -2 -2 -2 -2 -2 -2 -2 -2 -2 -2 -2 -1 -1 -1 -1 -1 -1 -1 -1 -0 -0 -0 -0 -0 0 0 0 1
-3 -2 -2 -2 -2 -2 -2 -2 -2 -2 -2 -2 -2 -3 -3 -3 -3 -3 -3 -3 -3 -3 -3 -3 -3 -2 -2 -2 -2 -2 -2 -2 -1 -1 -1 -1 -1 -1 -1 -1 -0 -0 -0
-3 -3 -3 -3 -3 -3 -3 -3 -3 -3 -3 -3 -3 -3 -3 -3 -3 -3 -3 -3 -3 -3 -3 -3 -3 -3 -3 -3 -3 -3 -2 -2 -2 -2 -2 -2 -1 -1 -1 -1 -1 -1 -1
-4 -4 -4 -4 -4 -4 -3 -4 -4 -4 -4 -4 -4 -4 -4 -4 -4 -4 -4 -4 -4 -4 -4 -4 -4 -4 -3 -3 -3 -4 -4 -3 -3 -3 -2 -2 -2 -2 -2 -1 -1 -1 -1
-4 -4 -4 -4 -4 -4 -4 -4 -4 -5 -5 -5 -5 -5 -5 -4 -4 -4 -4 -4 -4 -4 -4 -4 -4 -4 -4 -4 -4 -4 -4 -4 -4 -4 -3 -3 -3 -2 -2 -2 -2 -2 -2
-5 -5 -5 -5 -5 -5 -5 -5 -5 -5 -5 -5 -5 -5 -5 -5 -5 -5 -5 -5 -5 -5 -5 -5 -5 -4 -4 -4 -4 -4 -4 -4 -4 -4 -4 -4 -3 -3 -3 -3 -3 -3 -2
-6 -6 -6 -5 -6 -6 -6 -6 -6 -6 -6 -6 -6 -6 -6 -6 -5 -5 -5 -5 -5 -5 -5 -5 -5 -5 -5 -5 -5 -5 -5 -5 -5 -5 -5 -5 -4 -4 -4 -3 -3 -3 -3
-6 -6 -6 -6 -6 -6 -6 -6 -7 -7 -7 -6 -6 -6 -6 -6 -6 -6 -6 -6 -6 -6 -6 -6 -6 -6 -6 -6 -5 -5 -6 -6 -6 -5 -5 -5 -5 -5 -4 -4 -4 -4 -4
-7 -7 -7 -7 -7 -7 -7 -7 -7 -7 -7 -7 -7 -7 -7 -7 -7 -7 -7 -7 -7 -6 -6 -6 -6 -6 -6 -6 -6 -6 -6 -6 -6 -6 -6 -6 -6 -6 -5 -5 -4 -5 -5
Wind_Speed
4 4 4 5 5 5 5 5 6 5 5 5 5 6 5 5 5 5 5 5 5 5 5 5 5 4 4 5 5 6 5 5 5 5 6 6 6 5 5 5 4 4 4
4 3 3 4 4 4 4 4 4 4 4 4 4 5 4 4 4 4 4 4 4 4 4 4 4 4 3 4 4 4 4 4 5 5 5 5 5 4 4 4 4 4 4
4 3 3 3 3 3 4 5 5 5 4 3 3 4 4 3 3 3 3 3 3 3 4 4 3 3 3 2 3 3 3 4 4 4 4 3 3 4 3 3 3 3 3
4 4 3 2 2 3 4 3 3 2 2 2 2 2 2 3 3 2 3 3 3 3 3 3 3 3 2 2 1 1 2 3 3 2 3 3 3 3 3 2 1 2 2
3 3 2 1 2 3 3 2 2 2 2 2 2 1 2 2 2 2 3 3 3 3 3 3 3 3 3 2 1 0 0 2 2 1 1 2 2 2 2 1 0 1 1
2 2 2 2 2 2 1 2 1 1 1 1 1 2 2 1 1 1 1 2 3 3 3 3 3 3 3 2 1 1 1 1 2 2 1 2 2 1 0 0 0 0 1
3 2 2 2 2 1 1 1 1 1 1 1 2 2 2 2 1 1 2 2 3 3 4 3 3 3 3 3 2 2 2 2 2 3 2 2 3 2 2 1 1 1 1
4 3 2 2 2 2 1 1 1 1 0 0 1 1 1 1 2 2 1 1 1 3 3 4 3 3 3 3 3 4 4 4 4 4 4 3 4 3 3 3 3 2 2
4 3 3 2 3 3 3 3 3 2 1 1 1 2 1 2 2 2 2 1 1 2 2 3 3 3 2 2 3 4 4 4 5 5 5 5 5 5 4 4 4 3 3
4 4 4 3 3 3 3 3 2 2 3 2 1 0 1 1 1 2 2 2 1 1 1 2 3 3 3 2 2 4 5 5 5 5 6 6 6 6 6 5 5 4 4
3 4 4 4 4 4 4 4 3 2 3 3 2 1 1 1 1 2 3 2 2 2 2 2 2 2 3 3 3 4 5 5 5 5 6 5 5 6 6 5 5 5 5
2 3 4 4 4 4 4 4 4 4 4 3 2 2 2 2 2 2 2 3 3 3 3 2 2 2 2 3 3 4 5 5 6 6 7 6 6 6 5 6 6 6 6
3 4 4 4 4 4 5 4 4 4 4 4 4 3 3 3 2 2 2 3 3 3 2 2 3 3 3 3 4 5 6 6 7 7 8 8 7 7 7 5 5 5 6
5 4 5 5 5 5 5 5 4 4 4 4 5 4 3 3 3 3 3 2 3 3 3 3 2 4 3 3 5 7 7 7 8 8 8 8 8 8 8 6 6 6 5
4 5 5 4 4 5 5 5 4 5 5 5 5 5 4 3 3 3 3 3 4 5 5 4 3 3 4 5 6 7 7 8 9 9 9 9 8 8 8 7 6 6 6
5 5 5 5 5 5 5 5 5 5 5 5 4 5 5 4 3 3 3 3 3 5 6 4 3 3 4 6 7 6 7 9 9 9 10 9 9 9 9 8 7 6 6
5 6 6 5 6 5 5 5 5 6 6 6 5 6 6 5 5 4 4 4 4 4 6 5 4 3 4 4 5 6 7 8 8 10 10 9 9 8 8 8 7 7 6
5 6 5 5 6 5 5 6 6 6 7 7 7 7 7 5 6 5 5 5 5 5 6 7 5 4 5 5 4 4 6 7 7 9 10 10 9 9 9 9 8 7 7
5 5 5 6 6 6 6 6 6 7 7 8 7 8 7 7 7 6 6 6 6 5 5 5 6 4 4 4 4 4 5 5 7 8 9 9 9 10 10 10 9 7 7
6 6 6 6 6 7 7 7 7 7 7 7 7 7 7 8 8 8 7 7 6 6 5 5 5 4 4 4 4 4 5 4 5 6 7 9 9 10 11 11 10 8 8
7 6 6 6 6 7 7 7 7 7 7 7 7 7 8 9 10 9 7 6 6 6 5 6 5 5 5 5 5 4 5 4 5 5 4 5 6 6 8 11 11 9 9
6 6 7 7 7 7 10 12 9 7 7 7 7 7 7 8 10 11 12 11 9 8 8 7 7 7 7 6 5 5 5 5 5 3 3 5 4 5 7 8 10 11 10
6 7 7 7 8 9 12 12 12 8 7 7 7 7 6 7 8 7 9 10 10 11 11 9 8 8 7 6 6 6 7 7 7 4 4 6 4 6 7 9 11 11 11
6 6 7 7 8 9 12 12 12 8 7 7 8 8 8 7 7 7 7 7 7 8 9 8 8 8 8 7 8 7 7 6 5 5 4 5 5 6 7 9 11 12 11
6 6 6 7 8 9 11 11 11 6 6 7 8 8 8 8 11 11 7 7 7 7 9 10 11 11 11 11 9 5 5 5 6 5 3 4 4 5 6 6 9 11 10
6 6 6 6 7 8 11 12 11 6 7 6 6 8 11 11 12 12 8 7 8 8 6 6 6 7 7 7 9 7 6 6 5 4 3 3 3 3 5 5 5 7 8
Wind_Direction
78 68 61 62 57 62 63 61 61 64 66 63 62 63 58 56 55 52 49 58 65 68 68 71 71 87 101 94 104 93 92 94 95 94 92 88 82 94 102 96 94 106 110
95 83 65 53 49 60 67 73 64 64 63 62 55 56 62 65 60 54 49 49 54 62 62 64 64 62 84 104 96 111 94 96 100 101 99 96 88 92 100 104 100 93 105
110 102 83 61 48 64 73 73 65 63 58 54 44 44 55 60 62 64 62 61 51 46 49 46 44 44 45 82 105 102 113 91 96 103 101 103 102 97 89 90 97 96 91
120 118 101 78 74 81 74 72 69 62 49 35 20 27 41 49 48 61 73 77 68 46 31 25 23 19 19 34 76 109 120 127 90 100 101 97 104 102 92 81 87 100 93
122 115 118 108 106 89 69 77 68 79 74 37 5 9 29 30 37 64 66 72 69 58 39 9 6 5 7 13 32 14 160 166 158 99 149 131 115 101 84 67 86 132 89
138 118 117 115 116 100 84 74 78 73 114 79 26 9 347 357 41 63 73 72 70 62 51 24 16 5 3 1 354 329 295 252 210 213 230 194 164 150 87 319 163 188 252
165 142 131 133 123 139 152 116 105 89 68 67 54 20 350 344 19 43 65 65 55 56 52 36 34 35 9 348 333 324 311 294 256 237 242 228 200 204 221 238 233 247 274
187 182 169 173 164 151 151 149 115 102 20 98 99 78 2 329 344 338 353 24 34 46 48 26 27 34 20 9 357 346 324 299 292 258 241 257 234 223 229 238 243 255 271
206 204 198 194 185 177 189 199 175 163 187 272 142 142 164 221 294 297 292 300 355 21 28 12 8 7 357 358 346 336 329 323 308 289 255 259 253 240 241 244 246 253 271
218 216 210 212 204 196 198 208 201 191 174 208 266 292 206 196 218 269 289 289 296 298 314 342 350 338 330 332 331 323 323 320 317 309 286 270 267 248 245 246 246 251 262
224 219 214 216 217 208 205 206 210 209 195 199 216 247 259 299 251 228 255 264 284 276 280 296 295 303 307 322 327 323 322 316 318 321 324 292 289 266 255 250 249 255 259
233 223 218 218 225 218 210 211 208 209 211 207 215 222 222 220 228 233 251 257 265 273 280 275 259 253 289 311 312 320 319 318 318 316 313 309 295 297 281 262 256 257 257
232 227 226 221 225 226 218 209 208 212 213 210 213 227 234 237 233 243 247 262 276 286 272 264 250 243 267 292 311 311 305 305 307 306 304 304 300 295 286 278 272 267 264
229 228 226 225 229 226 223 213 215 218 216 218 224 225 237 240 237 235 237 238 268 276 262 257 265 239 249 277 298 302 299 293 294 295 296 294 302 293 290 271 274 273 273
236 227 222 221 227 229 221 213 222 221 218 223 227 227 236 243 237 239 232 219 224 248 254 245 245 247 256 287 296 295 290 285 284 284 285 283 291 289 291 272 271 272 273
228 223 226 223 224 230 226 217 224 222 220 226 226 223 230 237 235 234 229 233 237 238 252 245 244 260 262 277 284 290 284 280 280 281 280 280 279 286 283 271 257 262 268
223 223 226 226 226 231 230 223 226 218 220 227 231 228 233 232 232 230 227 228 236 239 252 267 263 261 255 262 284 283 281 275 272 274 276 274 271 278 280 277 254 255 262
228 226 223 229 230 230 230 225 225 222 220 224 227 227 234 234 234 229 226 230 234 235 244 259 267 262 261 247 256 269 278 274 270 271 271 270 270 272 276 279 259 255 260
231 231 224 226 231 230 233 234 229 226 225 226 225 225 229 227 234 234 228 231 235 239 242 245 256 259 266 253 253 274 276 275 271 266 267 268 269 273 273 279 263 255 258
226 229 234 231 235 233 236 237 232 229 225 229 230 230 227 228 230 232 233 232 231 232 236 238 246 250 254 250 242 257 272 270 275 279 272 272 270 274 273 277 267 255 252
228 230 234 237 237 236 234 233 229 229 226 227 231 233 234 235 237 235 236 229 225 228 231 238 241 249 244 238 239 248 265 274 275 273 273 270 270 271 274 271 261 250 248
228 230 232 234 238 241 239 236 232 229 229 228 232 237 240 242 245 245 245 241 232 224 223 233 243 237 239 240 240 249 255 270 272 252 256 271 268 275 275 264 255 249 249
228 232 234 233 236 242 238 237 237 230 229 228 227 231 239 241 243 242 246 248 249 249 239 234 235 238 237 234 234 245 250 255 261 250 258 265 261 266 275 265 255 251 251
229 231 235 235 239 242 239 237 237 233 230 230 229 227 231 236 237 237 236 241 246 250 251 247 242 242 240 229 226 235 246 262 276 258 240 256 256 263 273 269 252 245 247
237 236 237 234 236 244 240 238 238 229 229 232 232 228 227 232 238 238 233 238 248 255 258 256 257 254 252 250 237 226 234 247 267 265 235 241 263 277 273 265 252 242 244
238 239 243 239 235 241 240 239 237 227 228 232 234 232 234 235 237 237 228 228 240 246 246 253 256 258 252 249 244 226 221 234 254 264 241 232 256 279 279 263 238 238 245
Height
1531 1531 1532 1533 1533 1534 1534 1535 1536 1537 1538 1539 1540 1540 1541 1542 1543 1543 1544 1545 1545 1546 1546 1547 1548 1548 1548 1548 1549 1550 1551 1551 1551 1551 1551 1552 1552 1553 1554 1554 1555 1555 1555
1529 1530 1530 1531 1532 1532 1533 1534 1534 1535 1536 1537 1538 1539 1539 1540 1541 1542 1542 1543 1544 1544 1545 1545 1546 1546 1547 1547 1548 1548 1549 1550 1550 1550 1550 1551 1551 1551 1552 1552 1553 1553 1554
1527 1528 1528 1529 1530 1531 1531 1532 1533 1534 1534 1535 1536 1537 1538 1538 1539 1540 1541 1541 1542 1542 1543 1543 1544 1544 1545 1546 1546 1546 1547 1547 1548 1548 1549 1549 1549 1550 1550 1550 1551 1551 1551
1525 1526 1526 1527 1528 1528 1529 1530 1530 1531 1532 1533 1533 1534 1535 1536 1537 1538 1538 1539 1539 1540 1541 1541 1542 1542 1543 1543 1544 1544 1544 1545 1545 1546 1546 1547 1547 1548 1548 1548 1549 1549 1549
1522 1523 1524 1525 1525 1526 1526 1527 1528 1529 1529 1530 1531 1532 1533 1533 1534 1535 1536 1536 1537 1537 1538 1539 1539 1540 1541 1541 1541 1542 1542 1542 1543 1544 1544 1545 1545 1545 1546 1546 1546 1546 1547
1519 1520 1521 1522 1523 1523 1524 1524 1525 1526 1527 1527 1528 1529 1530 1531 1532 1532 1533 1533 1534 1534 1535 1536 1536 1537 1538 1538 1539 1539 1539 1540 1540 1541 1542 1542 1542 1543 1543 1544 1544 1544 1545
1516 1517 1518 1518 1519 1520 1521 1521 1522 1523 1524 1525 1525 1526 1527 1528 1528 1529 1530 1531 1531 1531 1532 1533 1533 1534 1534 1535 1536 1536 1536 1537 1537 1538 1539 1539 1539 1540 1540 1541 1541 1541 1542
1512 1513 1514 1515 1516 1517 1517 1518 1519 1519 1520 1522 1522 1523 1524 1525 1525 1526 1527 1527 1528 1528 1529 1529 1530 1530 1531 1532 1532 1533 1533 1534 1534 1534 1535 1536 1536 1537 1537 1538 1538 1538 1539
1509 1509 1510 1511 1512 1513 1513 1514 1515 1516 1516 1518 1520 1521 1521 1521 1521 1522 1522 1524 1524 1525 1525 1526 1526 1527 1528 1528 1529 1530 1530 1530 1531 1531 1532 1532 1533 1533 1534 1534 1534 1535 1535
1504 1505 1506 1507 1508 1508 1509 1511 1512 1513 1513 1514 1516 1517 1519 1518 1519 1517 1518 1519 1520 1521 1521 1522 1523 1523 1524 1525 1525 1525 1526 1527 1527 1528 1528 1529 1529 1530 1530 1530 1531 1531 1532
1499 1501 1502 1502 1503 1504 1505 1506 1507 1509 1509 1510 1511 1513 1514 1514 1515 1514 1513 1514 1515 1516 1517 1518 1519 1519 1520 1520 1521 1521 1522 1522 1523 1523 1524 1525 1525 1525 1526 1526 1527 1527 1527
1494 1495 1497 1498 1499 1500 1500 1502 1503 1504 1505 1506 1507 1508 1509 1510 1510 1510 1509 1509 1510 1511 1512 1513 1514 1515 1516 1516 1517 1517 1518 1518 1518 1519 1519 1520 1520 1521 1521 1521 1522 1522 1523
1488 1490 1491 1492 1493 1495 1496 1497 1498 1499 1500 1501 1502 1504 1505 1505 1506 1506 1506 1505 1505 1506 1507 1508 1509 1510 1511 1512 1512 1513 1513 1513 1514 1514 1515 1515 1515 1515 1516 1516 1517 1517 1518
1483 1484 1486 1487 1488 1489 1491 1492 1492 1494 1495 1496 1497 1498 1499 1500 1501 1502 1502 1502 1502 1501 1501 1502 1504 1505 1506 1507 1507 1508 1508 1509 1509 1509 1509 1510 1510 1510 1510 1511 1511 1512 1513
1478 1479 1480 1481 1482 1484 1485 1486 1487 1488 1489 1490 1491 1493 1494 1495 1496 1497 1498 1499 1500 1497 1496 1497 1498 1499 1501 1502 1502 1503 1503 1503 1504 1504 1504 1505 1504 1505 1505 1506 1506 1507 1507
1472 1473 1474 1475 1476 1478 1479 1480 1481 1482 1484 1484 1486 1487 1488 1489 1490 1491 1492 1493 1494 1494 1492 1491 1492 1494 1495 1496 1497 1497 1497 1498 1498 1499 1499 1499 1499 1500 1500 1500 1501 1501 1502
1467 1467 1468 1469 1470 1471 1473 1474 1475 1476 1477 1478 1480 1481 1482 1483 1484 1485 1486 1487 1488 1488 1487 1486 1488 1489 1489 1490 1491 1491 1492 1492 1492 1493 1493 1493 1494 1494 1495 1495 1496 1496 1496
1461 1461 1462 1463 1464 1465 1466 1468 1469 1470 1471 1472 1473 1475 1476 1477 1478 1479 1480 1481 1482 1483 1483 1481 1482 1483 1483 1484 1485 1485 1486 1486 1487 1487 1487 1487 1488 1488 1489 1489 1490 1490 1490
1454 1455 1456 1457 1458 1459 1461 1462 1463 1464 1465 1466 1467 1468 1470 1471 1472 1473 1474 1475 1476 1477 1477 1477 1476 1477 1478 1479 1479 1479 1480 1480 1481 1481 1481 1481 1482 1482 1483 1483 1484 1484 1484
1448 1449 1450 1451 1452 1453 1454 1456 1457 1458 1459 1460 1461 1462 1463 1464 1465 1467 1468 1468 1470 1470 1471 1471 1471 1471 1472 1473 1474 1474 1474 1474 1474 1475 1475 1475 1476 1477 1477 1477 1478 1478 1478
1442 1443 1444 1444 1446 1447 1448 1449 1451 1451 1452 1453 1454 1456 1457 1458 1459 1461 1462 1462 1464 1464 1465 1465 1465 1466 1466 1467 1468 1468 1469 1468 1468 1469 1469 1470 1470 1470 1470 1470 1471 1471 1472
1435 1436 1437 1438 1439 1440 1442 1443 1445 1445 1446 1447 1448 1449 1451 1452 1452 1454 1455 1456 1458 1458 1458 1459 1459 1459 1460 1462 1462 1463 1463 1463 1462 1463 1463 1463 1463 1462 1462 1463 1463 1465 1466
1429 1430 1431 1432 1432 1434 1435 1437 1438 1439 1440 1441 1442 1443 1444 1445 1446 1447 1448 1450 1451 1452 1453 1454 1453 1453 1454 1456 1457 1457 1457 1457 1456 1457 1457 1455 1456 1456 1456 1457 1458 1459 1459
1423 1423 1424 1425 1426 1427 1429 1431 1432 1433 1434 1435 1436 1437 1438 1439 1440 1441 1442 1443 1444 1445 1446 1447 1447 1448 1449 1451 1452 1452 1452 1451 1451 1451 1452 1450 1450 1450 1450 1450 1451 1452 1453
1416 1417 1418 1419 1420 1421 1423 1424 1426 1427 1427 1428 1430 1431 1432 1433 1434 1436 1436 1436 1437 1438 1439 1440 1441 1442 1443 1444 1445 1446 1446 1446 1445 1445 1446 1445 1443 1443 1442 1442 1443 1445 1446
1410 1411 1412 1413 1414 1415 1416 1418 1420 1421 1421 1422 1423 1424 1426 1427 1428 1429 1430 1430 1430 1431 1433 1433 1434 1435 1436 1437 1438 1439 1439 1440 1439 1438 1439 1439 1438 1438 1436 1435 1436 1438 1439